Regional Weather Roundup
Issued by NWS

Home | Current Version | Previous Version | Text Only | Print | Product List | Glossary Off
Versions: 1 2 3 4 5 6 7 8 9 10 11 12 13 14 15 16 17 18 19 20 21 22 23 24 25 26 27 28 29 30 31 32 33 34 35 36 37 38 39 40 41 42 43 44 45 46 47 48 49 50

000
ASUS43 KOAX 231110
RWRNE

WEATHER ROUNDUP FOR NEBRASKA
NATIONAL WEATHER SERVICE OMAHA NE
500 AM CST TUE JAN 23 2018

NOTES: SATELLITE DATA IS BEING USED TO AUGMENT CLOUD COVER ABOVE
       12000 FEET.
       "FAIR" INDICATES FEW OR NO CLOUDS BELOW 12,000 FEET WITH NO
       SIGNIFICANT WEATHER AND/OR OBSTRUCTIONS TO VISIBILITY.


NEZ001>004-019>022-054>056-231200-
NEBRASKA PANHANDLE

CITY           SKY/WX    TMP DP  RH WIND       PRES   REMARKS
SCOTTSBLUFF    CLOUDY    25  17  72 W10       30.13S WCI  15
ALLIANCE       CLOUDY    23  19  85 W10       30.09S WCI  12
CHADRON        MOCLDY    24  18  77 W6        30.13R WCI  17
GORDON         CLOUDY    26  19  75 W12       30.08R WCI  16
KIMBALL        CLOUDY    29  20  69 NW14      30.12R WCI  18
SIDNEY         CLOUDY    28  21  75 NW13      30.12R WCI  17
$$

NEZ057>060-069>072-079>082-231200-
SOUTHWEST NEBRASKA

CITY           SKY/WX    TMP DP  RH WIND       PRES   REMARKS
NORTH PLATTE   PTCLDY     8   3  80 NW6       30.11S WCI  -2
IMPERIAL         N/A     21  15  78 W10       30.12R WCI  10
LEXINGTON      CLEAR     16  10  77 W10       30.10S WCI   3
MCCOOK         PTCLDY    15  10  80 SW8       30.12S WCI   4
OGALLALA       CLOUDY    26  18  70 NW15      30.11S WCI  14
$$

NEZ005>010-023>029-035>040-094-231200-
NORTH CENTRAL NEBRASKA

CITY           SKY/WX    TMP DP  RH WIND       PRES   REMARKS
VALENTINE      MOCLDY    12   7  80 W8        30.07S WCI   0
AINSWORTH      PTCLDY    18  14  83 NW9       30.06R WCI   7
BROKEN BOW     CLEAR     22  13  68 NW16      30.07R WCI   8
O`NEILL        CLOUDY    21  21 100 NW6       30.06S FOG     WCI  14
ORD            CLEAR     11   8  88 N3        30.07S
THEDFORD       CLEAR     17  11  79 W8        30.08S WCI   6
$$

NEZ041-046>049-061>064-073>077-083>087-231200-
SOUTH CENTRAL NEBRASKA

CITY           SKY/WX    TMP DP  RH WIND       PRES   REMARKS
GRAND ISLAND   CLEAR     17  14  88 NW12      30.07R WCI   4
AURORA           N/A     14  13  95 NW8       30.07S WCI   3
HASTINGS       CLEAR     21  15  78 NW15      30.08R WCI   8
HEBRON         CLOUDY    21  18  90 W3        30.11R
HOLDREGE       CLEAR     21  16  81 NW5       30.09R WCI  14
KEARNEY        CLEAR     19  14  81 NW10      30.08S WCI   7
YORK           CLEAR     21  21 100 NW16      30.08R WCI   7
$$

NEZ011>018-030>034-042>045-231200-
NORTHEAST NEBRASKA

CITY           SKY/WX    TMP DP  RH WIND       PRES   REMARKS
NORFOLK        CLOUDY    24  19  81 NW15G22   30.05R WCI  11
ALBION         CLOUDY    21  19  91 NW15      30.06R WCI   7
BLAIR          CLOUDY    25  22  89 NW17G29   30.02R WCI  11
COLUMBUS       CLOUDY    22  20  92 NW18      30.08R WCI   7
FREMONT          N/A    N/A N/A N/A MISG        N/A
TEKAMAH        CLOUDY    25  23  92 N22       30.06R WCI  10
WAYNE            N/A     21  20  96 NW20      30.05S WCI   5
$$

NEZ050>053-065>068-078-088>093-231200-
SOUTHEAST NEBRASKA

CITY           SKY/WX    TMP DP  RH WIND       PRES   REMARKS
LINCOLN        CLOUDY    24  20  84 N13       30.09R WCI  12
OMAHA EPPLEY   CLOUDY    26  22  84 NW22G30   30.04R WCI  12
BEATRICE       CLOUDY    25  22  86 N20G26    30.08R WCI  11
FALLS CITY     CLOUDY    27  23  85 NW20G25   30.04R WCI  13
NEBRASKA CITY  CLOUDY    26  26  99 NW21      30.04R WCI  12
PLATTSMOUTH    CLOUDY    26  23  89 NW24G30   30.04R WCI  10
$$

NEZ044-045-051>053-067-231200-
OMAHA AREA

CITY           SKY/WX    TMP DP  RH WIND       PRES   REMARKS
OMAHA EPPLEY   CLOUDY    26  22  84 NW22G30   30.04R WCI  12
BLAIR          CLOUDY    25  22  89 NW17G29   30.02R WCI  11
FREMONT          N/A    N/A N/A N/A MISG        N/A
MILLARD        CLOUDY    27  22  82 NW8G28    30.06R WCI  19
OFFUTT AFB     CLOUDY    26  21  83 NW12G21   30.05R WCI  15
PLATTSMOUTH    CLOUDY    26  23  89 NW24G30   30.04R WCI  10
WAHOO          CLOUDY    23  19  84 NW15      30.07R WCI  10
$$




USA.gov is the U.S. government's official web portal to all federal, state and local government web resources and services.